Location: Barrio Las Umbrías
(40.4173°N, 4.8685°W)
Time: 14:10:00
(UTC+00:00)

Cosmos 1000 Rocket - Pass Details

Date: 17 August 2022
Orbit: 954 x 992 km, 82.9° (Epoch: 27 September)

Event Time Altitude Azimuth Distance (km) Brightness Sun altitude
Rises 20:21:42 0° 178° (S) 3,635 7.2 -12.6°
Reaches altitude 10° 20:24:11 10° 176° (S) 2,698 6.5 -13.0°
Maximum altitude 20:30:19 70° 94° (E) 1,031 4.4 -14.0°
Drops below altitude 10° 20:36:33 10° 12° (NNE) 2,741 7.1 -15.0°
Sets 20:39:06 0° 10° (N) 3,698 7.8 -15.4°
